This is the latest recevied weather packets stored in our database for station/object N6DZK. If no packets are shown the sender has not sent any weather packets the latest 1 day(s).
| Time | Temp. | Humidity | Pressure | Rain* | Wind** | Luminosity | Snow |
|---|---|---|---|---|---|---|---|
| 1778052790 | 12.78° C | 86% | 1018.8 hPa | 0 mm | - | 0 W/m² | - |
| 1778052486 | 12.78° C | 85% | 1018.9 hPa | 0 mm | - | 0 W/m² | - |
| 1778052184 | 12.78° C | 85% | 1018.9 hPa | 0 mm | - | 0 W/m² | - |
| 1778051881 | 13.33° C | 85% | 1018.8 hPa | 0 mm | - | 0 W/m² | - |
| 1778051276 | 12.78° C | 86% | 1018.7 hPa | 0 mm | - | 0 W/m² | - |
| 1778050973 | 12.78° C | 86% | 1018.6 hPa | 0 mm | - | 0 W/m² | - |
| 1778050671 | 12.78° C | 86% | 1018.6 hPa | 0 mm | - | 0 W/m² | - |
| 1778050368 | 12.78° C | 85% | 1018.6 hPa | 0 mm | - | 0 W/m² | - |
| 1778050064 | 12.78° C | 85% | 1018.7 hPa | 0 mm | - | 0 W/m² | - |
| 1778049760 | 12.78° C | 84% | 1018.3 hPa | 0 mm | - | 0 W/m² | - |
| 1778049458 | 12.78° C | 84% | 1018.4 hPa | 0 mm | - | 0 W/m² | - |
| 1778049155 | 12.78° C | 84% | 1018.4 hPa | 0 mm | - | 0 W/m² | - |
| 1778048550 | 12.78° C | 86% | 1018.3 hPa | 0 mm | - | 0 W/m² | - |
| 1778048246 | 12.78° C | 86% | 1018.4 hPa | 0 mm | - | 0 W/m² | - |
| 1778047944 | 12.78° C | 85% | 1018.3 hPa | 0 mm | - | 0 W/m² | - |
| 1778047642 | 12.78° C | 85% | 1018.4 hPa | 0 mm | - | 0 W/m² | - |
| 1778045823 | 13.89° C | 81% | 1018 hPa | 0 mm | - | 0 W/m² | - |
| 1778044917 | 13.89° C | 81% | 1018.1 hPa | 0 mm | - | 0 W/m² | - |
| 1778044311 | 14.44° C | 80% | 1018 hPa | 0 mm | - | 0 W/m² | - |
| 1778044009 | 14.44° C | 79% | 1017.8 hPa | 0 mm | - | 0 W/m² | - |
| 1778043706 | 14.44° C | 78% | 1018 hPa | 0 mm | - | 0 W/m² | - |
| 1778043402 | 14.44° C | 77% | 1017.7 hPa | 0 mm | - | 0 W/m² | - |
| 1778042797 | 14.44° C | 77% | 1017.7 hPa | 0 mm | - | 0 W/m² | - |
| 1778042191 | 15° C | 77% | 1017.7 hPa | 0 mm | - | 0 W/m² | - |
| 1778041889 | 15° C | 77% | 1017.6 hPa | 0 mm | - | 0 W/m² | - |
* Rain latest hour (hover to see other rain measurements)
** Current wind speed in m/s (hover to see current wind gust speed)